^^
North Bend WA Weather Station Historical Data
 
Daily Summary for January 21, 2020 Units:  English    Metric   Both
Daily Weekly Monthly Yearly Custom
  Current: High: Low: Average:
Temperature: 49 °F 51 °F 49 °F 50 °F
Dew Point: 35 °F 35 °F 34 °F 34.7 °F
Humidity: 58% 58% 52% 55%
Wind Speed: 11mph 13mph 5mph 10.1mph
Wind Gust: 28mph 28mph - -
WindESE - - ESE
Pressure: 29.59 in 29.65 in 29.58 in -
Precipitation: 0 in      
Historical Graphs
 
 
Tabular Data for January 21, 2020
Time Temperature Dew Point Pressure Wind Wind Speed Wind Gust Humidity Rainfall Rate (Hourly) solar
00:04 49 °F 35 °F 29.65 in ESE 11 mph 20 mph 57% 0 in 0 W/m2
00:09 49 °F 35 °F 29.64 in ESE 11 mph 20 mph 56% 0 in 0 W/m2
00:14 49 °F 35 °F 29.64 in ESE 11 mph 20 mph 56% 0 in 0 W/m2
00:19 49 °F 35 °F 29.64 in ESE 12 mph 20 mph 57% 0 in 0 W/m2
00:24 50 °F 35 °F 29.64 in ESE 11 mph 20 mph 56% 0 in 0 W/m2
00:29 50 °F 35 °F 29.64 in ESE 12 mph 25 mph 56% 0 in 0 W/m2
00:34 50 °F 35 °F 29.64 in ESE 10 mph 25 mph 56% 0 in 0 W/m2
00:39 50 °F 35 °F 29.64 in ESE 12 mph 20 mph 56% 0 in 0 W/m2
00:44 50 °F 35 °F 29.64 in ESE 11 mph 20 mph 56% 0 in 0 W/m2
00:49 50 °F 35 °F 29.63 in ESE 12 mph 22 mph 56% 0 in 0 W/m2
00:54 50 °F 35 °F 29.63 in ESE 11 mph 22 mph 56% 0 in 0 W/m2
00:59 50 °F 35 °F 29.63 in ESE 11 mph 20 mph 56% 0 in 0 W/m2
01:04 50 °F 35 °F 29.63 in ESE 12 mph 20 mph 56% 0 in 0 W/m2
01:09 50 °F 35 °F 29.63 in ESE 11 mph 20 mph 55% 0 in 0 W/m2
01:14 50 °F 35 °F 29.62 in ESE 10 mph 20 mph 55% 0 in 0 W/m2
01:19 50 °F 35 °F 29.62 in ESE 9 mph 20 mph 55% 0 in 0 W/m2
01:24 50 °F 35 °F 29.62 in ESE 11 mph 18 mph 55% 0 in 0 W/m2
01:29 50 °F 35 °F 29.62 in ESE 12 mph 25 mph 55% 0 in 0 W/m2
01:34 50 °F 35 °F 29.62 in ESE 10 mph 25 mph 55% 0 in 0 W/m2
01:39 50 °F 35 °F 29.62 in ESE 9 mph 15 mph 55% 0 in 0 W/m2
01:44 50 °F 35 °F 29.62 in ESE 10 mph 18 mph 54% 0 in 0 W/m2
01:49 51 °F 35 °F 29.63 in ESE 11 mph 27 mph 54% 0 in 0 W/m2
01:54 50 °F 34 °F 29.62 in ESE 11 mph 26 mph 54% 0 in 0 W/m2
01:59 50 °F 34 °F 29.62 in ESE 11 mph 20 mph 54% 0 in 0 W/m2
02:04 50 °F 35 °F 29.62 in ESE 10 mph 20 mph 54% 0 in 0 W/m2
02:09 50 °F 35 °F 29.62 in ESE 11 mph 20 mph 54% 0 in 0 W/m2
02:14 50 °F 35 °F 29.62 in ESE 11 mph 17 mph 54% 0 in 0 W/m2
02:19 50 °F 34 °F 29.63 in ESE 11 mph 21 mph 54% 0 in 0 W/m2
02:24 50 °F 34 °F 29.62 in ESE 10 mph 21 mph 54% 0 in 0 W/m2
02:29 50 °F 34 °F 29.62 in ESE 11 mph 20 mph 54% 0 in 0 W/m2
02:34 51 °F 35 °F 29.62 in ESE 10 mph 18 mph 54% 0 in 0 W/m2
02:39 50 °F 35 °F 29.62 in ESE 10 mph 18 mph 54% 0 in 0 W/m2
02:44 51 °F 35 °F 29.61 in ESE 11 mph 19 mph 54% 0 in 0 W/m2
02:49 51 °F 35 °F 29.61 in ESE 9 mph 20 mph 54% 0 in 0 W/m2
02:54 51 °F 34 °F 29.61 in ESE 10 mph 18 mph 53% 0 in 0 W/m2
02:59 51 °F 34 °F 29.61 in ESE 10 mph 17 mph 53% 0 in 0 W/m2
03:04 50 °F 34 °F 29.61 in ESE 11 mph 23 mph 53% 0 in 0 W/m2
03:09 51 °F 34 °F 29.61 in ESE 11 mph 23 mph 53% 0 in 0 W/m2
03:14 51 °F 34 °F 29.61 in ESE 9 mph 20 mph 53% 0 in 0 W/m2
03:19 50 °F 34 °F 29.6 in ESE 10 mph 20 mph 53% 0 in 0 W/m2
03:24 50 °F 34 °F 29.61 in ESE 11 mph 21 mph 53% 0 in 0 W/m2
03:29 50 °F 34 °F 29.62 in ESE 13 mph 27 mph 53% 0 in 0 W/m2
03:34 50 °F 34 °F 29.62 in ESE 9 mph 26 mph 53% 0 in 0 W/m2
03:39 51 °F 34 °F 29.61 in ESE 8 mph 21 mph 52% 0 in 0 W/m2
03:44 50 °F 35 °F 29.61 in ESE 6 mph 17 mph 54% 0 in 0 W/m2
03:49 50 °F 35 °F 29.61 in ESE 5 mph 15 mph 55% 0 in 0 W/m2
03:54 50 °F 35 °F 29.6 in ESE 10 mph 17 mph 56% 0 in 0 W/m2
03:59 50 °F 35 °F 29.6 in ESE 8 mph 17 mph 56% 0 in 0 W/m2
04:04 49 °F 35 °F 29.6 in ESE 8 mph 15 mph 57% 0 in 0 W/m2
04:09 49 °F 35 °F 29.59 in ESE 8 mph 14 mph 57% 0 in 0 W/m2
04:14 49 °F 35 °F 29.59 in ESE 8 mph 19 mph 57% 0 in 0 W/m2
04:19 49 °F 35 °F 29.59 in ESE 8 mph 20 mph 57% 0 in 0 W/m2
04:24 49 °F 35 °F 29.58 in ESE 7 mph 18 mph 56% 0 in 0 W/m2
04:29 50 °F 35 °F 29.59 in ESE 9 mph 17 mph 56% 0 in 0 W/m2
04:34 50 °F 35 °F 29.59 in ESE 8 mph 17 mph 56% 0 in 0 W/m2
04:39 50 °F 35 °F 29.59 in ESE 11 mph 27 mph 56% 0 in 0 W/m2
04:44 50 °F 35 °F 29.59 in ESE 11 mph 28 mph 57% 0 in 0 W/m2
04:49 49 °F 35 °F 29.59 in ESE 11 mph 28 mph 58% 0 in 0 W/m2
North Bend WA Weather
Compliments of Weather Underground - 4 mb